Regional Weather Roundup
Issued by NWS

Home | Current Version | Previous Version | Graphics & Text | Print | Product List | Glossary On
Versions: 1 2 3 4 5 6 7 8 9 10 11 12 13 14 15 16 17 18 19 20 21 22 23 24 25 26 27 28 29 30 31 32 33 34 35 36 37 38 39 40 41 42 43 44 45 46 47 48 49 50
000
ASUS43 KFSD 250510
RWRSD

WEATHER ROUNDUP FOR SOUTH DAKOTA
NATIONAL WEATHER SERVICE SIOUX FALLS SD
1100 PM CST SAT JAN 24 2015

NOTE: "FAIR" INDICATES FEW OR NO CLOUDS BELOW 12,000 FEET WITH NO
SIGNIFICANT WEATHER AND/OR OBSTRUCTIONS TO VISIBILITY.


SDZ001>005-009-010-012>017-250600-
NORTHWEST AND NORTH CENTRAL SOUTH DAKOTA

CITY           SKY/WX    TMP DP  RH WIND       PRES   REMARKS
BUFFALO          N/A     37  29  72 NW30G36   29.88R
FAITH            N/A     40  29  64 NW29G40   29.89R
MOBRIDGE       MIX PCPN  36  34  92 NW12      29.79S
$$

SDZ012>016-024>037-041>051-057-063-072>074-250600-
SOUTHWEST AND SOUTH CENTRAL SOUTH DAKOTA

CITY           SKY/WX    TMP DP  RH WIND       PRES   REMARKS
RAPID CTY ARPT CLEAR     41  26  55 NW26G38   29.96R
PIERRE         LGT RAIN  37  34  89 N21G33    29.82R
CUSTER         CLEAR     33  17  51 NW12G24   29.98S WCI  24
ELLSWORTH AFB  CLEAR     40  27  58 NW26G43   29.95S
PHILIP         CLOUDY    43  31  62 NW32G44   29.90R
PINE RIDGE     PTCLDY    37  26  64 NW8       29.98R
WINNER         CLOUDY    40  35  83 NW28G36   29.80R
$$

SDZ004>011-016>023-039-040-250600-
NORTHEAST SOUTH DAKOTA

CITY           SKY/WX    TMP DP  RH WIND       PRES   REMARKS
ABERDEEN       LGT SNOW  33  30  88 N18       29.79R FOG     WCI  22
WATERTOWN      LGT SNOW  31  29  92 N17       29.69R FOG     WCI  19
SISSETON         N/A     32  32 100 N16       29.73R WCI  21
$$

SDZ017-020-022-023-036>040-048>070-250600-
SOUTHEAST SOUTH DAKOTA

CITY           SKY/WX    TMP DP  RH WIND       PRES   REMARKS
SIOUX FALLS    FLURRIES  35  33  92 N14       29.61R WCI  26
HURON          LGT SNOW  32  31  96 N18G26    29.74R FOG     WCI  20
CHAMBERLAIN    CLOUDY    36  32  87 NW25G36   29.78R
MITCHELL       MIX PCPN  34  33  96 N25G33    29.71R FOG     WCI  21
YANKTON        CLOUDY   N/A N/A N/A NW25G31   29.63S
$$

ABBREVIATIONS USED IN REMARKS
   TC - TEMPERATURE IN CELSIUS
  WCI - WIND CHILL INDEX
   HX - HEAT INDEX
  VSB - VISIBILITY




USA.gov is the U.S. government's official web portal to all federal, state and local government web resources and services.